CW8822 Caguas PR US current weather conditions

sailwx.info

Wind from 182

Air temperature 25.6° C
Dewpoint 23.6° C

Last reported at 2016-Sep-27 00:46 UTC.
Time now 2016-Sep-27 01:54 UTC

Location: N 18°12' W 066°01'.
View on Google Maps.

See reports from other nearby stations

  
Tides and Currents Weather Stations Pressure Air Temp Water Temp Dewpoint Dewpoint Depression Visibility Wind Speed Wind Dir Waves Ship Positions
date/time (UTC)wind fromknots sea level pressurealtimeterstation pressurevisibilityair tempwater tempwave heightnotes
2016-Sep-27 00:46 182 25.6
2016-Sep-27 00:31 181 1 gusting 5 26.1
2016-Sep-27 00:16 180 1 gusting 4 26.1
2016-Sep-27 00:01 044 26.1
2016-Sep-26 23:47 044 26.1
2016-Sep-26 23:31 044 26.7
2016-Sep-26 23:17 044 26.7
2016-Sep-26 23:02 044 26.7
2016-Sep-26 22:47 044 26.7
2016-Sep-26 22:31 044 26.7
2016-Sep-26 22:16 044 27.2
2016-Sep-26 22:02 044 27.2
2016-Sep-26 21:45 044 27.8
2016-Sep-26 21:31 044 27.8
2016-Sep-26 21:16 044 28.3
2016-Sep-26 21:01 044 28.3
2016-Sep-26 20:46 059 28.9
2016-Sep-26 20:31 355 29.4
2016-Sep-26 20:15 053 29.4
2016-Sep-26 20:01 053 30.0
2016-Sep-26 19:46 053 30.0
2016-Sep-26 19:31 040 0 gusting 4 30.0
2016-Sep-26 19:15 159 31.7
2016-Sep-26 19:01 082 31.7
2016-Sep-26 18:46 055 31.7
2016-Sep-26 18:30 067 31.7
2016-Sep-26 18:15 144 32.2
2016-Sep-26 17:59 083 32.2
2016-Sep-26 17:45 071 31.7
2016-Sep-26 17:30 095 32.2
2016-Sep-26 17:14 059 30.6
2016-Sep-26 16:59 072 31.1
2016-Sep-26 16:45 040 31.1
2016-Sep-26 16:30 091 31.7
2016-Sep-26 16:15 060 31.1
2016-Sep-26 15:59 183 31.1
2016-Sep-26 15:44 123 31.1
2016-Sep-26 15:30 148 30.6
2016-Sep-26 15:15 136 31.1
2016-Sep-26 15:00 111 30.6
2016-Sep-26 14:43 061 30.6
2016-Sep-26 14:29 057 30.0
2016-Sep-26 14:14 114 30.0
2016-Sep-26 13:58 101 29.4
2016-Sep-26 13:44 060 29.4
2016-Sep-26 13:28 078 29.4
2016-Sep-26 13:13 153 28.9
2016-Sep-26 12:59 194 27.8
2016-Sep-26 12:43 204 27.8
2016-Sep-26 12:31 205 26.7
2016-Sep-26 12:20 205 26.1
2016-Sep-26 12:10 205 25.6
2016-Sep-26 11:48 205 25.0
2016-Sep-26 11:27 205 25.0
2016-Sep-26 11:13 205 24.4
2016-Sep-26 10:57 205 23.9
2016-Sep-26 10:43 204 23.3
2016-Sep-26 10:27 208 23.3
2016-Sep-26 10:12 208 23.3
2016-Sep-26 09:58 208 23.3
2016-Sep-26 09:42 208 23.3
2016-Sep-26 09:27 208 23.3
2016-Sep-26 09:11 208 23.3
2016-Sep-26 08:57 208 23.3
2016-Sep-26 08:42 208 23.3
2016-Sep-26 08:27 208 23.9
2016-Sep-26 08:11 208 1 gusting 5 23.3
2016-Sep-26 07:56 208 23.3
2016-Sep-26 07:42 208 23.9
2016-Sep-26 07:27 208 2 gusting 5 23.3
2016-Sep-26 07:11 208 23.3
2016-Sep-26 06:56 208 23.9
2016-Sep-26 06:41 208 23.9
2016-Sep-26 06:27 208 23.9
2016-Sep-26 06:10 208 23.9
2016-Sep-26 05:56 209 23.9
2016-Sep-26 05:41 208 23.9
2016-Sep-26 05:25 208 24.4
2016-Sep-26 05:11 208 24.4
2016-Sep-26 04:56 209 24.4
2016-Sep-26 04:40 208 24.4
2016-Sep-26 04:26 208 25.0
2016-Sep-26 04:11 208 2 gusting 6 25.0
2016-Sep-26 03:55 208 0 gusting 4 24.4
2016-Sep-26 03:41 208 0 gusting 3 24.4
2016-Sep-26 03:24 208 25.0
2016-Sep-26 03:10 208 25.0
2016-Sep-26 02:55 208 25.0
2016-Sep-26 02:40 208 25.0
2016-Sep-26 02:26 208 25.0
2016-Sep-26 02:09 208 25.0
2016-Sep-26 01:55 208 0 gusting 5 25.0
2016-Sep-26 01:40 208 25.0
2016-Sep-26 01:24 207 1 gusting 5 25.0
2016-Sep-26 01:09 203 3 gusting 5 25.0
2016-Sep-26 00:54 136 25.6
2016-Sep-26 00:40 136 25.6
2016-Sep-26 00:25 136 25.6
2016-Sep-26 00:09 136 25.6
2016-Sep-25 23:54 136 26.1
2016-Sep-25 23:39 136 26.1
2016-Sep-25 23:24 136 26.1
2016-Sep-25 23:10 136 26.1
2016-Sep-25 22:54 136 26.7
2016-Sep-25 22:39 136 26.7
2016-Sep-25 22:24 136 26.7
2016-Sep-25 22:08 136 27.2
2016-Sep-25 21:54 136 27.2
2016-Sep-25 21:39 136 27.8
2016-Sep-25 21:24 136 27.8
2016-Sep-25 21:08 136 28.3
2016-Sep-25 20:54 137 28.9
2016-Sep-25 20:39 138 28.9
2016-Sep-25 20:23 148 28.9
2016-Sep-25 20:08 140 28.9
2016-Sep-25 19:53 086 30.0
2016-Sep-25 19:39 061 0 gusting 6 31.1
2016-Sep-25 19:24 115 31.7
2016-Sep-25 19:08 044 31.7
2016-Sep-25 18:53 055 31.1
2016-Sep-25 18:37 115 31.7
2016-Sep-25 18:22 057 31.1
2016-Sep-25 18:08 133 0 gusting 7 30.6
2016-Sep-25 17:52 132 31.1
2016-Sep-25 17:37 133 0 gusting 6 31.1
2016-Sep-25 17:22 030 0 gusting 4 30.6
2016-Sep-25 17:07 114 31.1
2016-Sep-25 16:53 152 31.1
2016-Sep-25 16:37 165 30.6
2016-Sep-25 16:22 187 0 gusting 6 31.7
2016-Sep-25 16:06 093 31.7
2016-Sep-25 15:52 130 31.1
2016-Sep-25 15:36 062 30.6
2016-Sep-25 15:22 142 30.6
2016-Sep-25 15:07 123 30.6
2016-Sep-25 14:51 138 30.6
2016-Sep-25 14:36 135 30.0
2016-Sep-25 14:22 135 29.4
2016-Sep-25 14:06 148 28.9
2016-Sep-25 13:51 179 28.3
2016-Sep-25 13:36 186 28.9
2016-Sep-25 13:22 191 28.3
2016-Sep-25 13:06 084 27.8
2016-Sep-25 12:51 162 27.2
2016-Sep-25 12:35 162 26.7
2016-Sep-25 12:20 176 26.1
2016-Sep-25 12:06 176 25.6
2016-Sep-25 11:50 165 25.0
2016-Sep-25 11:36 165 24.4
2016-Sep-25 11:20 165 23.9
2016-Sep-25 11:05 165 23.9
2016-Sep-25 10:51 165 23.9
2016-Sep-25 10:34 165 23.9
2016-Sep-25 10:20 165 23.9
2016-Sep-25 10:05 165 23.9
2016-Sep-25 09:50 165 23.3
2016-Sep-25 09:34 165 23.9
2016-Sep-25 09:19 165 23.9
2016-Sep-25 09:04 165 23.9
2016-Sep-25 08:50 165 23.9
2016-Sep-25 08:33 165 23.9
2016-Sep-25 08:19 165 23.9
2016-Sep-25 08:04 165 23.9
2016-Sep-25 07:49 165 23.9
2016-Sep-25 07:35 165 24.4
2016-Sep-25 07:18 165 23.9
2016-Sep-25 07:04 165 23.9
2016-Sep-25 06:49 165 24.4
2016-Sep-25 06:34 165 24.4
2016-Sep-25 06:19 165 24.4
2016-Sep-25 06:04 165 24.4
2016-Sep-25 05:48 165 24.4
2016-Sep-25 05:33 165 24.4
2016-Sep-25 05:19 165 24.4
2016-Sep-25 05:02 165 25.0
2016-Sep-25 04:48 165 25.0
2016-Sep-25 04:33 165 25.0
2016-Sep-25 04:18 165 25.0
2016-Sep-25 04:03 165 25.0
2016-Sep-25 03:47 165 25.0
2016-Sep-25 03:32 165 25.0
2016-Sep-25 03:17 165 25.0
2016-Sep-25 03:03 165 25.0
2016-Sep-25 02:48 165 25.0
2016-Sep-25 02:33 165 25.6
2016-Sep-25 02:18 165 25.6
2016-Sep-25 02:02 165 25.6
2016-Sep-25 01:48 165 25.6
2016-Sep-25 01:32 165 25.6
2016-Sep-25 01:17 165 25.6
2016-Sep-25 01:03 165 25.6